Beaumont / Port Arthur, TX

1:18 PM CDT on July 22, 2017 (GMT -0500)
Beaumont Municipal

Weather History for KBMT - April, 2014

Change the Weather History Date:

Wednesday, April 16, 2014

  Actual Average (KBPT) Record (KBPT)
Temperature  
Mean Temperature 51 °F -  
Max Temperature 65 °F 78 °F 90 °F (1944)
Min Temperature 38 °F 58 °F 37 °F (1961)
Degree Days  
Heating Degree Days 14    
Growing Degree Days 1 (Base 50)    
Moisture  
Dew Point 42 °F    
Average Humidity 67    
Maximum Humidity 95    
Minimum Humidity 42    
Precipitation  
Precipitation 0.00 in - - ()
Sea Level Pressure  
Sea Level Pressure 30.15 in    
Wind  
Wind Speed 5 mph (ESE)    
Max Wind Speed 12 mph    
Max Gust Speed 23 mph    
Visibility 10 miles    
Events      
Averages and records for this station are not official NWS values.
T = Trace of Precipitation, MM = Missing Value Source: NWS Daily Summary

Daily Weather History Graph

Daily Weather History Graph

Search for Another Location

Airport or City:

Trip Planner

Search our weather history database for the weather conditions in past years. The results will help you decide how hot, cold, wet, or windy it might be!

Date:

Astronomy

Apr. 16, 2014 Rise Set
Actual Time 6:48 AM CDT 7:44 PM CDT
Civil Twilight 6:24 AM CDT 8:09 PM CDT
Nautical Twilight 5:55 AM CDT 8:38 PM CDT
Astronomical Twilight 5:25 AM CDT 9:08 PM CDT
Moon 9:22 PM CDT (4/16) 7:41 AM CDT (4/16)
Length of Visible Light 13h 45m
Length of Day
12h 56m
Full, 98% of the Moon is Illuminated
Apr 16
Full
Apr 22
Last Quarter
Apr 29
New
May 6
First Quarter
May 14
Full

Hourly Weather History & Observations

Time (CDT) Temp. Windchill Dew Point Humidity Pressure Visibility Wind Dir Wind Speed Gust Speed Precip Events Conditions
12:15 AM 43.2 °F - 38.1 °F 82% 30.19 in 10.0 mi Calm Calm - N/A   Clear
12:35 AM 42.6 °F - 38.3 °F 85% 30.19 in 10.0 mi Calm Calm - N/A   Clear
12:55 AM 44.1 °F - 36.5 °F 75% 30.18 in 10.0 mi Calm Calm - N/A   Clear
1:15 AM 45.9 °F - 35.6 °F 67% 30.18 in 10.0 mi Calm Calm - N/A   Clear
1:35 AM 45.0 °F 43.5 °F 36.0 °F 71% 30.18 in 10.0 mi East 3.5 mph - N/A   Clear
1:55 AM 43.0 °F - 37.4 °F 81% 30.18 in 10.0 mi Calm Calm - N/A   Clear
2:15 AM 38.8 °F - 37.4 °F 95% 30.17 in 10.0 mi Calm Calm - N/A   Clear
2:35 AM 43.0 °F 41.3 °F 36.0 °F 76% 30.18 in 10.0 mi East 3.5 mph - N/A   Clear
2:55 AM 43.9 °F 40.5 °F 36.1 °F 74% 30.18 in 10.0 mi ESE 5.8 mph - N/A   Clear
3:15 AM 44.6 °F 40.7 °F 36.5 °F 73% 30.18 in 10.0 mi East 6.9 mph - N/A   Clear
3:35 AM 44.6 °F 42.2 °F 37.2 °F 75% 30.18 in 10.0 mi East 4.6 mph - N/A   Clear
3:55 AM 43.0 °F 40.3 °F 37.2 °F 80% 30.18 in 10.0 mi ESE 4.6 mph - N/A   Clear
4:15 AM 43.2 °F 40.5 °F 37.4 °F 80% 30.19 in 10.0 mi ESE 4.6 mph - N/A   Clear
4:35 AM 42.3 °F 39.4 °F 37.8 °F 84% 30.19 in 10.0 mi ESE 4.6 mph - N/A   Clear
4:55 AM 43.2 °F 40.5 °F 37.8 °F 81% 30.18 in 10.0 mi East 4.6 mph - N/A   Clear
5:15 AM 42.8 °F 40.1 °F 37.6 °F 82% 30.19 in 10.0 mi East 4.6 mph - N/A   Clear
5:35 AM 43.7 °F 40.3 °F 37.9 °F 80% 30.19 in 10.0 mi East 5.8 mph - N/A   Clear
5:55 AM 44.1 °F 40.8 °F 37.9 °F 79% 30.19 in 10.0 mi East 5.8 mph - N/A   Clear
6:15 AM 44.6 °F 42.2 °F 38.3 °F 79% 30.20 in 10.0 mi East 4.6 mph - N/A   Clear
6:35 AM 44.6 °F 41.4 °F 37.8 °F 77% 30.20 in 10.0 mi East 5.8 mph - N/A   Clear
6:55 AM 45.0 °F 41.8 °F 36.5 °F 72% 30.20 in 10.0 mi East 5.8 mph - N/A   Clear
7:15 AM 45.5 °F 42.5 °F 36.0 °F 69% 30.20 in 10.0 mi East 5.8 mph - N/A   Clear
7:35 AM 46.4 °F 42.4 °F 36.7 °F 69% 30.21 in 10.0 mi East 8.1 mph - N/A   Clear
7:55 AM 47.3 °F - 36.7 °F 67% 30.21 in 10.0 mi East 8.1 mph - N/A   Clear
8:15 AM 48.2 °F - 36.7 °F 64% 30.22 in 10.0 mi East 8.1 mph - N/A   Clear
8:35 AM 49.3 °F - 37.8 °F 65% 30.21 in 10.0 mi East 10.4 mph - N/A   Clear
8:55 AM 51.1 °F - 38.7 °F 63% 30.21 in 10.0 mi East 9.2 mph - N/A   Clear
9:15 AM 52.5 °F - 36.0 °F 53% 30.21 in 10.0 mi ESE 11.5 mph 16.1 mph N/A   Clear
9:35 AM 53.8 °F - 37.0 °F 53% 30.22 in 10.0 mi East 8.1 mph - N/A   Clear
9:55 AM 54.3 °F - 34.0 °F 46% 30.22 in 10.0 mi ESE 8.1 mph - N/A   Clear
10:15 AM 55.0 °F - 35.2 °F 47% 30.23 in 10.0 mi ESE 8.1 mph - N/A   Clear
10:35 AM 56.1 °F - 33.1 °F 42% 30.23 in 10.0 mi ENE 5.8 mph - N/A   Clear
10:55 AM 56.5 °F - 35.8 °F 46% 30.24 in 10.0 mi SE 8.1 mph - N/A   Clear
11:15 AM 57.4 °F - 40.3 °F 53% 30.23 in 10.0 mi SE 6.9 mph - N/A   Clear
11:35 AM 59.4 °F - 43.2 °F 55% 30.23 in 10.0 mi SE 11.5 mph 16.1 mph N/A   Scattered Clouds
11:55 AM 59.9 °F - 44.4 °F 57% 30.21 in 10.0 mi SSE 6.9 mph - N/A   Scattered Clouds
12:15 PM 59.2 °F - 44.2 °F 58% 30.20 in 10.0 mi ESE 6.9 mph - N/A   Scattered Clouds
12:35 PM 60.3 °F - 44.1 °F 55% 30.19 in 10.0 mi SSE 4.6 mph - N/A   Scattered Clouds
1:15 PM 60.4 °F - 45.5 °F 58% 30.18 in 10.0 mi SSE 10.4 mph 19.6 mph N/A   Mostly Cloudy
1:35 PM 61.0 °F - 46.2 °F 58% 30.17 in 10.0 mi ESE 9.2 mph 16.1 mph N/A   Mostly Cloudy
1:55 PM 62.6 °F - 46.2 °F 55% 30.15 in 10.0 mi SSE 8.1 mph 16.1 mph N/A   Mostly Cloudy
2:15 PM 61.2 °F - 45.5 °F 56% 30.14 in 10.0 mi ESE 6.9 mph - N/A   Mostly Cloudy
2:35 PM 62.4 °F - 45.1 °F 53% 30.13 in 10.0 mi SE 10.4 mph - N/A   Mostly Cloudy
2:55 PM 64.9 °F - 46.9 °F 52% 30.12 in 10.0 mi SE 11.5 mph 17.3 mph N/A   Scattered Clouds
3:15 PM 63.0 °F - 45.3 °F 53% 30.11 in 10.0 mi SE 6.9 mph 16.1 mph N/A   Clear
3:35 PM 63.0 °F - 46.0 °F 54% 30.10 in 10.0 mi SE 8.1 mph - N/A   Clear
3:55 PM 64.8 °F - 45.7 °F 50% 30.09 in 10.0 mi SSE 9.2 mph 23.0 mph N/A   Clear
4:15 PM 62.8 °F - 45.5 °F 53% 30.09 in 10.0 mi SSE 10.4 mph - N/A   Clear
4:35 PM 64.2 °F - 46.6 °F 53% 30.08 in 10.0 mi SSE 8.1 mph - N/A   Clear
4:55 PM 64.8 °F - 47.1 °F 53% 30.07 in 10.0 mi SSE 10.4 mph - N/A   Scattered Clouds
5:15 PM 64.4 °F - 47.5 °F 54% 30.07 in 10.0 mi SSE 9.2 mph - N/A   Scattered Clouds
5:35 PM 63.7 °F - 47.1 °F 55% 30.07 in 10.0 mi SSE 6.9 mph - N/A   Scattered Clouds
5:55 PM 62.1 °F - 46.9 °F 58% 30.07 in 10.0 mi South 10.4 mph - N/A   Scattered Clouds
6:15 PM 64.4 °F - 48.2 °F 56% 30.06 in 10.0 mi SE 11.5 mph 17.3 mph N/A   Mostly Cloudy
6:35 PM 62.4 °F - 47.8 °F 59% 30.06 in 10.0 mi SSE 8.1 mph - N/A   Mostly Cloudy
6:55 PM 61.7 °F - 48.4 °F 62% 30.07 in 10.0 mi South 5.8 mph - N/A   Scattered Clouds
7:15 PM 61.0 °F - 48.6 °F 64% 30.07 in 10.0 mi SE 8.1 mph - N/A   Mostly Cloudy
7:35 PM 59.4 °F - 49.1 °F 69% 30.07 in 10.0 mi SSE 8.1 mph - N/A   Overcast
7:55 PM 58.5 °F - 49.1 °F 71% 30.07 in 10.0 mi SSE 5.8 mph - N/A   Overcast
8:15 PM 57.4 °F - 49.8 °F 76% 30.07 in 10.0 mi SE 4.6 mph - N/A   Overcast
8:35 PM 57.6 °F - 50.2 °F 76% 30.09 in 10.0 mi SE 5.8 mph - N/A   Overcast
8:55 PM 57.2 °F - 50.2 °F 77% 30.09 in 10.0 mi SE 6.9 mph - N/A   Overcast
9:15 PM 56.3 °F - 50.0 °F 79% 30.09 in 10.0 mi ESE 6.9 mph - N/A   Mostly Cloudy
9:35 PM 55.8 °F - 50.0 °F 81% 30.09 in 10.0 mi ESE 6.9 mph - N/A   Scattered Clouds
9:55 PM 55.6 °F - 49.6 °F 80% 30.08 in 10.0 mi ESE 6.9 mph - N/A   Clear
10:15 PM 55.4 °F - 50.0 °F 82% 30.08 in 10.0 mi ESE 6.9 mph - N/A   Clear
10:35 PM 54.7 °F - 50.0 °F 84% 30.08 in 10.0 mi ESE 4.6 mph - N/A   Clear
10:55 PM 54.3 °F - 50.0 °F 85% 30.09 in 10.0 mi ESE 3.5 mph - N/A   Clear
11:15 PM 54.0 °F - 50.2 °F 87% 30.08 in 10.0 mi East 3.5 mph - N/A   Clear
11:35 PM 54.3 °F - 50.4 °F 86% 30.08 in 10.0 mi Calm Calm - N/A   Clear
11:55 PM 54.5 °F - 50.4 °F 86% 30.09 in 10.0 mi Calm Calm - N/A   Clear